TimeMDT,TemperatureF,Dew PointF,Humidity,Sea Level PressureIn,VisibilityMPH,Wind Direction,Wind SpeedMPH,Gust SpeedMPH,PrecipitationIn,Events,Conditions,WindDirDegrees,DateUTC
12:15 AM,53.6,48.2,82,30.45,10.0,Calm,Calm,-,N/A,,Overcast,0,2013-08-25 06:15:00
12:35 AM,53.6,48.2,82,30.46,10.0,Calm,Calm,-,N/A,,Overcast,0,2013-08-25 06:35:00
12:55 AM,53.6,46.4,77,30.47,10.0,Calm,Calm,-,N/A,Rain,Light Rain,0,2013-08-25 06:55:00
1:15 AM,53.6,46.4,77,30.48,10.0,Calm,Calm,-,N/A,Rain,Light Rain,0,2013-08-25 07:15:00
1:35 AM,53.6,48.2,82,30.48,10.0,Calm,Calm,-,N/A,,Light Drizzle,0,2013-08-25 07:35:00
1:55 AM,53.6,48.2,82,30.47,10.0,NNE,3.5,-,N/A,,Overcast,30,2013-08-25 07:55:00
2:15 AM,53.6,46.4,77,30.46,10.0,Calm,Calm,-,N/A,,Overcast,0,2013-08-25 08:15:00
2:35 AM,53.6,46.4,77,30.47,10.0,Calm,Calm,-,N/A,,Overcast,0,2013-08-25 08:35:00
2:55 AM,53.6,48.2,82,30.47,10.0,Calm,Calm,-,N/A,Rain,Light Rain,0,2013-08-25 08:55:00
3:15 AM,51.8,50.0,94,30.47,10.0,Calm,Calm,-,0.01,Rain,Rain,0,2013-08-25 09:15:00
3:35 AM,53.6,48.2,82,30.47,10.0,Calm,Calm,-,0.01,,Overcast,0,2013-08-25 09:35:00
3:55 AM,53.6,50.0,88,30.47,10.0,East,8.1,-,0.01,,Overcast,90,2013-08-25 09:55:00
4:15 AM,53.6,48.2,82,30.47,10.0,East,3.5,-,N/A,,Overcast,80,2013-08-25 10:15:00
4:35 AM,51.8,50.0,94,30.47,10.0,East,8.1,-,N/A,,Overcast,100,2013-08-25 10:35:00
4:55 AM,53.6,48.2,82,30.47,10.0,East,3.5,-,N/A,,Overcast,100,2013-08-25 10:55:00
5:15 AM,51.8,50.0,94,30.48,10.0,East,3.5,-,N/A,,Overcast,80,2013-08-25 11:15:00
5:35 AM,53.6,50.0,88,30.48,10.0,East,3.5,-,N/A,,Overcast,100,2013-08-25 11:35:00
5:55 AM,53.6,48.2,82,30.47,10.0,ENE,3.5,-,N/A,,Overcast,70,2013-08-25 11:55:00
6:15 AM,53.6,48.2,82,30.48,10.0,Calm,Calm,-,N/A,,Overcast,0,2013-08-25 12:15:00
6:35 AM,53.6,48.2,82,30.48,10.0,ESE,6.9,-,N/A,,Overcast,120,2013-08-25 12:35:00
6:55 AM,53.6,50.0,88,30.49,10.0,ESE,9.2,-,N/A,,Overcast,110,2013-08-25 12:55:00
7:15 AM,53.6,50.0,88,30.49,10.0,SE,5.8,-,N/A,,Overcast,130,2013-08-25 13:15:00
7:35 AM,53.6,50.0,88,30.49,10.0,ESE,4.6,-,N/A,,Overcast,110,2013-08-25 13:35:00
7:55 AM,53.6,50.0,88,30.50,10.0,Calm,Calm,-,N/A,,Overcast,0,2013-08-25 13:55:00
8:15 AM,55.4,50.0,82,30.50,10.0,Calm,Calm,-,N/A,Rain,Light Rain,0,2013-08-25 14:15:00
8:35 AM,55.4,48.2,77,30.50,10.0,Calm,Calm,-,N/A,,Light Drizzle,0,2013-08-25 14:35:00
8:55 AM,55.4,50.0,82,30.51,10.0,Calm,Calm,-,N/A,Rain,Light Rain,0,2013-08-25 14:55:00
9:15 AM,55.4,50.0,82,30.51,10.0,Calm,Calm,-,N/A,Rain,Light Rain,0,2013-08-25 15:15:00
9:35 AM,55.4,50.0,82,30.51,10.0,Calm,Calm,-,N/A,Rain,Rain,0,2013-08-25 15:35:00
9:55 AM,55.4,50.0,82,30.51,10.0,Calm,Calm,-,0.01,,Light Drizzle,0,2013-08-25 15:55:00
10:15 AM,55.4,53.6,94,30.51,7.0,Calm,Calm,-,N/A,,Light Drizzle,0,2013-08-25 16:15:00
10:35 AM,55.4,50.0,82,30.51,10.0,Calm,Calm,-,N/A,,Drizzle,0,2013-08-25 16:35:00
10:55 AM,55.4,51.8,88,30.52,7.0,Calm,Calm,-,N/A,Rain,Rain,0,2013-08-25 16:55:00
11:15 AM,55.4,53.6,94,30.53,7.0,Calm,Calm,-,0.01,Rain,Rain,0,2013-08-25 17:15:00
11:35 AM,55.4,53.6,94,30.52,10.0,Calm,Calm,-,0.02,Rain,Light Rain,0,2013-08-25 17:35:00
11:55 AM,57.2,51.8,82,30.52,10.0,Calm,Calm,-,0.02,,Light Drizzle,0,2013-08-25 17:55:00
12:15 PM,59.0,51.8,77,30.51,10.0,SSE,3.5,-,N/A,Rain,Light Rain,160,2013-08-25 18:15:00
12:35 PM,59.0,53.6,82,30.51,10.0,Calm,Calm,-,N/A,Rain,Light Rain,0,2013-08-25 18:35:00
12:55 PM,59.0,51.8,77,30.50,10.0,Calm,Calm,-,N/A,,Overcast,0,2013-08-25 18:55:00
1:15 PM,59.0,50.0,72,30.50,10.0,Calm,Calm,-,N/A,,Overcast,0,2013-08-25 19:15:00
1:35 PM,59.0,50.0,72,30.51,10.0,Calm,Calm,-,N/A,,Overcast,0,2013-08-25 19:35:00
1:55 PM,60.8,48.2,63,30.50,10.0,South,11.5,20.7,N/A,,Overcast,180,2013-08-25 19:55:00
2:15 PM,60.8,48.2,63,30.49,10.0,South,9.2,17.3,N/A,,Overcast,190,2013-08-25 20:15:00
2:35 PM,60.8,48.2,63,30.49,10.0,South,3.5,-,N/A,,Overcast,180,2013-08-25 20:35:00
2:55 PM,60.8,50.0,68,30.49,10.0,SE,9.2,-,N/A,,Overcast,130,2013-08-25 20:55:00
3:15 PM,60.8,50.0,68,30.48,10.0,SE,4.6,-,N/A,,Overcast,140,2013-08-25 21:15:00
3:35 PM,60.8,50.0,68,30.48,10.0,SE,5.8,-,N/A,,Overcast,130,2013-08-25 21:35:00
3:55 PM,60.8,50.0,68,30.47,10.0,SSE,4.6,-,N/A,,Overcast,160,2013-08-25 21:55:00
4:15 PM,60.8,50.0,68,30.47,10.0,South,4.6,-,N/A,,Mostly Cloudy,170,2013-08-25 22:15:00
4:35 PM,62.6,50.0,63,30.47,10.0,SSE,12.7,18.4,N/A,,Scattered Clouds,160,2013-08-25 22:35:00
4:55 PM,62.6,48.2,59,30.46,10.0,SSE,10.4,17.3,N/A,,Scattered Clouds,150,2013-08-25 22:55:00
5:15 PM,60.8,48.2,63,30.46,10.0,SE,16.1,24.2,N/A,,Mostly Cloudy,130,2013-08-25 23:15:00
5:35 PM,60.8,50.0,68,30.46,10.0,SE,10.4,17.3,N/A,,Overcast,140,2013-08-25 23:35:00
5:55 PM,60.8,50.0,68,30.47,10.0,SE,9.2,-,N/A,,Overcast,130,2013-08-25 23:55:00
6:15 PM,60.8,50.0,68,30.48,10.0,ESE,3.5,-,N/A,,Overcast,110,2013-08-26 00:15:00
6:35 PM,59.0,50.0,72,30.49,7.0,SSE,16.1,23.0,0.01,Rain-Thunderstorm,Rain,150,2013-08-26 00:35:00
6:55 PM,55.4,51.8,88,30.49,4.0,Calm,Calm,-,0.05,Rain,Heavy Rain,0,2013-08-26 00:55:00
7:15 PM,53.6,51.8,94,30.48,10.0,Calm,Calm,-,0.02,Rain,Light Rain,0,2013-08-26 01:15:00
7:35 PM,55.4,50.0,82,30.48,10.0,NE,3.5,-,0.02,,Overcast,50,2013-08-26 01:35:00
7:55 PM,55.4,51.8,88,30.49,10.0,Calm,Calm,-,0.02,,Overcast,0,2013-08-26 01:55:00
8:15 PM,55.4,50.0,82,30.49,10.0,East,3.5,-,N/A,,Overcast,100,2013-08-26 02:15:00
8:35 PM,55.4,50.0,82,30.50,10.0,Calm,Calm,-,N/A,,Overcast,0,2013-08-26 02:35:00
8:55 PM,55.4,53.6,94,30.51,10.0,East,3.5,-,N/A,,Overcast,100,2013-08-26 02:55:00
9:15 PM,55.4,53.6,94,30.51,10.0,East,4.6,-,N/A,,Overcast,90,2013-08-26 03:15:00
9:35 PM,53.6,51.8,94,30.51,10.0,Calm,Calm,-,N/A,,Mostly Cloudy,0,2013-08-26 03:35:00
9:55 PM,55.4,51.8,88,30.52,10.0,ESE,6.9,-,N/A,Rain,Light Rain,110,2013-08-26 03:55:00
10:15 PM,55.4,51.8,88,30.53,10.0,Calm,Calm,-,N/A,Rain,Light Rain,0,2013-08-26 04:15:00
10:35 PM,53.6,53.6,100,30.53,1.8,Calm,Calm,-,0.01,Rain,Light Rain,0,2013-08-26 04:35:00
10:55 PM,53.6,51.8,94,30.53,4.0,Calm,Calm,-,0.04,Rain,Rain,0,2013-08-26 04:55:00
11:15 PM,53.6,53.6,100,30.55,4.0,Calm,Calm,-,0.04,Rain,Rain,0,2013-08-26 05:15:00
11:35 PM,53.6,53.6,100,30.54,2.5,Calm,Calm,-,0.12,Rain,Rain,0,2013-08-26 05:35:00
11:55 PM,51.8,51.8,100,30.53,10.0,Calm,Calm,-,0.14,Rain,Light Rain,0,2013-08-26 05:55:00